Tiempo cada hora Badajoz

Hoy, 10 Mayo, Lunes

Tiempo Temperatura Precipitaciones Viento Presión Humedad
00:00 +9°C° 0 mm 2 mps 743 mmHg 88%
01:00 +9°C° 0 mm 2 mps 743 mmHg 89%
02:00 +9°C° 0 mm 2 mps 743 mmHg 91%
03:00 +8°C° 0 mm 2 mps 743 mmHg 93%
04:00 +8°C° 0 mm 2 mps 743 mmHg 93%
05:00 +8°C° 0 mm 2 mps 743 mmHg 93%
06:00 +9°C° 0 mm 2 mps 743 mmHg 92%
07:00 +12°C° 0.1 mm 2 mps 743 mmHg 83%
08:00 +13°C° 0.1 mm 3 mps 743 mmHg 73%
09:00 +15°C° 0.1 mm 4 mps 743 mmHg 63%
10:00 +15°C° 0.3 mm 5 mps 743 mmHg 60%
11:00 +16°C° 0.3 mm 5 mps 743 mmHg 57%
12:00 +16°C° 0.3 mm 6 mps 743 mmHg 53%
13:00 +16°C° 0.4 mm 6 mps 743 mmHg 53%
14:00 +17°C° 0.4 mm 6 mps 742 mmHg 52%
15:00 +17°C° 0.4 mm 6 mps 742 mmHg 52%
16:00 +16°C° 0.2 mm 6 mps 743 mmHg 57%
17:00 +15°C° 0.2 mm 6 mps 743 mmHg 61%
18:00 +14°C° 0.2 mm 6 mps 743 mmHg 66%
19:00 +13°C° 0 mm 6 mps 744 mmHg 72%
20:00 +12°C° 0 mm 5 mps 745 mmHg 77%
21:00 +10°C° 0 mm 4 mps 746 mmHg 83%
22:00 +9°C° 0 mm 3 mps 747 mmHg 86%
23:00 +9°C° 0 mm 3 mps 747 mmHg 89%

Mañana, 11 Mayo, Martes

Tiempo Temperatura Precipitaciones Viento Presión Humedad
00:00 +8°C° 0 mm 3 mps 748 mmHg 91%
01:00 +8°C° 0 mm 2 mps 748 mmHg 91%
02:00 +7°C° 0 mm 2 mps 748 mmHg 91%
03:00 +7°C° 0 mm 2 mps 749 mmHg 91%
04:00 +7°C° 0 mm 2 mps 749 mmHg 90%
05:00 +7°C° 0 mm 2 mps 749 mmHg 90%
06:00 +7°C° 0 mm 2 mps 750 mmHg 89%
07:00 +10°C° 0 mm 2 mps 750 mmHg 78%
08:00 +12°C° 0 mm 3 mps 750 mmHg 67%
09:00 +14°C° 0 mm 3 mps 751 mmHg 56%
10:00 +16°C° 0 mm 3 mps 751 mmHg 51%
11:00 +17°C° 0 mm 4 mps 750 mmHg 46%
12:00 +19°C° 0 mm 4 mps 750 mmHg 42%
13:00 +19°C° 0 mm 4 mps 750 mmHg 41%
14:00 +20°C° 0 mm 5 mps 749 mmHg 40%
15:00 +20°C° 0 mm 5 mps 749 mmHg 39%
16:00 +20°C° 0 mm 5 mps 749 mmHg 41%
17:00 +19°C° 0 mm 4 mps 749 mmHg 43%
18:00 +19°C° 0 mm 4 mps 749 mmHg 45%
19:00 +17°C° 0 mm 4 mps 749 mmHg 51%
20:00 +14°C° 0 mm 3 mps 750 mmHg 58%
21:00 +12°C° 0 mm 3 mps 750 mmHg 64%
22:00 +12°C° 0 mm 3 mps 750 mmHg 68%
23:00 +11°C° 0 mm 3 mps 750 mmHg 73%

Pasado mañana, 12 Mayo, Miércoles

Tiempo Temperatura Precipitaciones Viento Presión Humedad
00:00 +10°C° 0 mm 3 mps 750 mmHg 77%
01:00 +11°C° 0 mm 3 mps 749 mmHg 78%
02:00 +11°C° 0 mm 3 mps 749 mmHg 80%
03:00 +11°C° 0 mm 3 mps 749 mmHg 81%
04:00 +11°C° 0 mm 3 mps 749 mmHg 81%
05:00 +12°C° 0 mm 3 mps 749 mmHg 82%
06:00 +12°C° 0 mm 3 mps 749 mmHg 82%
07:00 +13°C° 0 mm 3 mps 749 mmHg 78%
08:00 +14°C° 0 mm 4 mps 749 mmHg 74%
09:00 +15°C° 0 mm 4 mps 749 mmHg 71%
10:00 +18°C° 0 mm 4 mps 749 mmHg 61%
11:00 +20°C° 0 mm 5 mps 749 mmHg 51%
12:00 +22°C° 0 mm 5 mps 749 mmHg 40%
13:00 +22°C° 0 mm 6 mps 749 mmHg 40%
14:00 +22°C° 0 mm 6 mps 748 mmHg 40%
15:00 +23°C° 0 mm 6 mps 748 mmHg 39%
16:00 +22°C° 0 mm 6 mps 748 mmHg 41%
17:00 +21°C° 0 mm 6 mps 749 mmHg 43%
18:00 +20°C° 0 mm 6 mps 749 mmHg 45%
19:00 +17°C° 0 mm 5 mps 749 mmHg 53%
20:00 +15°C° 0 mm 4 mps 749 mmHg 60%
21:00 +13°C° 0 mm 3 mps 750 mmHg 68%
22:00 +12°C° 0 mm 3 mps 750 mmHg 73%
23:00 +11°C° 0 mm 3 mps 750 mmHg 79%

13 Mayo, Jueves

Tiempo Temperatura Precipitaciones Viento Presión Humedad
00:00 +12°C° 0 mm 2 mps 750 mmHg 85%
01:00 +10°C° 0 mm 2 mps 749 mmHg 88%
02:00 +10°C° 0 mm 2 mps 749 mmHg 91%
03:00 +10°C° 0 mm 1 mps 749 mmHg 93%
04:00 +10°C° 0 mm 2 mps 749 mmHg 93%
05:00 +10°C° 0 mm 2 mps 749 mmHg 93%
06:00 +10°C° 0 mm 2 mps 749 mmHg 92%
07:00 +13°C° 0 mm 2 mps 749 mmHg 83%
08:00 +14°C° 0 mm 3 mps 749 mmHg 74%
09:00 +17°C° 0 mm 3 mps 748 mmHg 65%
10:00 +18°C° 0 mm 4 mps 748 mmHg 61%
11:00 +20°C° 0 mm 5 mps 748 mmHg 56%
12:00 +22°C° 0 mm 5 mps 747 mmHg 52%
13:00 +22°C° 0 mm 6 mps 747 mmHg 52%
14:00 +22°C° 0 mm 6 mps 746 mmHg 52%
15:00 +22°C° 0 mm 7 mps 746 mmHg 52%
16:00 +21°C° 0 mm 6 mps 746 mmHg 57%
17:00 +21°C° 0 mm 6 mps 746 mmHg 62%
18:00 +20°C° 0 mm 6 mps 745 mmHg 67%
19:00 +19°C° 0 mm 5 mps 746 mmHg 73%
20:00 +17°C° 0 mm 5 mps 746 mmHg 79%
21:00 +15°C° 0 mm 4 mps 746 mmHg 86%
22:00 +14°C° 0 mm 4 mps 746 mmHg 88%
23:00 +13°C° 0 mm 4 mps 746 mmHg 90%

14 Mayo, Viernes

Tiempo Temperatura Precipitaciones Viento Presión Humedad
00:00 +12°C° 0 mm 4 mps 746 mmHg 92%
01:00 +12°C° 0 mm 4 mps 746 mmHg 91%
02:00 +12°C° 0 mm 4 mps 746 mmHg 89%
03:00 +11°C° 0 mm 4 mps 746 mmHg 87%
04:00 +12°C° 0 mm 4 mps 746 mmHg 85%
05:00 +12°C° 0 mm 3 mps 746 mmHg 83%
06:00 +12°C° 0 mm 3 mps 746 mmHg 80%
07:00 +14°C° 0 mm 3 mps 746 mmHg 72%
08:00 +15°C° 0 mm 4 mps 747 mmHg 63%
09:00 +18°C° 0 mm 4 mps 747 mmHg 54%
10:00 +19°C° 0 mm 5 mps 747 mmHg 48%
11:00 +21°C° 0 mm 5 mps 747 mmHg 42%
12:00 +22°C° 0 mm 5 mps 747 mmHg 35%
13:00 +23°C° 0 mm 5 mps 746 mmHg 34%
14:00 +23°C° 0 mm 5 mps 746 mmHg 33%
15:00 +23°C° 0 mm 6 mps 746 mmHg 31%
16:00 +23°C° 0 mm 5 mps 746 mmHg 33%
17:00 +22°C° 0 mm 5 mps 746 mmHg 34%
18:00 +22°C° 0 mm 5 mps 746 mmHg 35%
19:00 +20°C° 0 mm 4 mps 747 mmHg 41%
20:00 +17°C° 0 mm 4 mps 747 mmHg 46%
21:00 +14°C° 0 mm 4 mps 748 mmHg 52%
22:00 +13°C° 0 mm 3 mps 748 mmHg 55%
23:00 +12°C° 0 mm 3 mps 748 mmHg 59%

15 Mayo, Sábado

Tiempo Temperatura Precipitaciones Viento Presión Humedad
00:00 +12°C° 0 mm 2 mps 748 mmHg 62%
01:00 +12°C° 0 mm 2 mps 748 mmHg 61%
02:00 +12°C° 0 mm 1 mps 748 mmHg 61%
03:00 +12°C° 0 mm 1 mps 748 mmHg 61%
04:00 +12°C° 0 mm 1 mps 748 mmHg 60%
05:00 +12°C° 0 mm 1 mps 748 mmHg 60%
06:00 +12°C° 0 mm 1 mps 749 mmHg 59%
07:00 +15°C° 0 mm 1 mps 749 mmHg 52%
08:00 +18°C° 0 mm 1 mps 749 mmHg 44%
09:00 +21°C° 0 mm 1 mps 749 mmHg 37%
10:00 +23°C° 0 mm 2 mps 749 mmHg 33%
11:00 +25°C° 0 mm 2 mps 749 mmHg 29%
12:00 +27°C° 0 mm 2 mps 749 mmHg 26%
13:00 +28°C° 0 mm 2 mps 749 mmHg 27%
14:00 +29°C° 0 mm 2 mps 748 mmHg 27%
15:00 +29°C° 0 mm 2 mps 748 mmHg 28%
16:00 +29°C° 0 mm 3 mps 748 mmHg 31%
17:00 +28°C° 0 mm 3 mps 748 mmHg 34%
18:00 +28°C° 0 mm 3 mps 748 mmHg 37%
19:00 +26°C° 0 mm 3 mps 748 mmHg 45%
20:00 +22°C° 0 mm 3 mps 748 mmHg 53%
21:00 +20°C° 0 mm 3 mps 748 mmHg 60%
22:00 +19°C° 0 mm 2 mps 748 mmHg 64%
23:00 +18°C° 0 mm 2 mps 748 mmHg 67%
Mostrar más

Necesitamos Su Consentimiento

Meteoprog y nuestros Proveedores de Servicios pueden almacenar y acceder a sus datos personales como cookies, identificadores de dispositivo u otras tecnologías similares de su dispositivo y procesar dichos datos para personalizar contenido y anuncios, además de ofrecer funciones de redes sociales y analizar el tráfico.

  • Almacenar y/o acceder a información en su dispositivo

    Se puede almacenar o acceder a cookies, identificadores de dispositivo u otra información de su dispositivo para los fines anteriormente indicados.

  • Anuncios y contenido personalizados, medición de anuncios y contenido, percepciones del público, y desarrollo de productos

    Los anuncios y el contenido pueden personalizarse en base a su perfil. Se pueden añadir más datos para personalizar mejor los anuncios y contenidos. Se puede medir el rendimiento de los anuncios y contenidos. Se puede obtener la percepción sobre el público que ha visto los anuncios y contenidos. Dichos datos pueden usarse para desarrollar o mejorar la experiencia del usuario, sistemas y software.

Al hacer clic en ‘Estoy De Acuerdo’ usted permitirá el uso de las cookies, identificadores de dispositivo, balizas web u otras tecnologías similares indicadas. Su configuración puede cambiarse desde el navegador de su dispositivo.

Para ciertos fines, los intereses legítimos pueden ser considerados por encima del consentimiento. Puede leer más sobre ello en nuestra Política de Privacidad y Cookies.